TimeMDT,TemperatureF,Dew PointF,Humidity,Sea Level PressureIn,VisibilityMPH,Wind Direction,Wind SpeedMPH,Gust SpeedMPH,PrecipitationIn,Events,Conditions,WindDirDegrees,DateUTC
12:14 AM,51.8,44.6,76,30.32,10.0,South,15.0,19.6,N/A,,Clear,170,2013-07-16 06:14:00
12:34 AM,51.8,44.6,76,30.32,10.0,South,15.0,-,N/A,,Clear,180,2013-07-16 06:34:00
12:54 AM,51.8,44.6,76,30.33,10.0,South,15.0,-,N/A,,Clear,170,2013-07-16 06:54:00
1:14 AM,51.8,44.6,76,30.32,10.0,South,16.1,-,N/A,,Clear,180,2013-07-16 07:14:00
1:34 AM,51.8,44.6,76,30.31,10.0,South,16.1,-,N/A,,Clear,180,2013-07-16 07:34:00
1:54 AM,51.8,46.4,82,30.31,10.0,South,15.0,-,N/A,,Clear,180,2013-07-16 07:54:00
2:14 AM,50.0,46.4,87,30.31,10.0,South,13.8,-,N/A,,Clear,180,2013-07-16 08:14:00
2:34 AM,50.0,46.4,87,30.30,10.0,South,13.8,-,N/A,,Clear,170,2013-07-16 08:34:00
2:54 AM,50.0,46.4,87,30.30,10.0,South,13.8,-,N/A,,Clear,180,2013-07-16 08:54:00
3:14 AM,50.0,46.4,87,30.29,10.0,South,13.8,-,N/A,,Clear,180,2013-07-16 09:14:00
3:34 AM,50.0,44.6,82,30.29,10.0,South,13.8,18.4,N/A,,Clear,180,2013-07-16 09:34:00
3:54 AM,50.0,44.6,82,30.29,10.0,South,10.4,-,N/A,,Clear,180,2013-07-16 09:54:00
4:13 AM,50.0,44.6,82,30.28,10.0,South,10.4,-,N/A,,Clear,190,2013-07-16 10:13:00
4:34 AM,50.0,44.6,82,30.29,10.0,South,9.2,-,N/A,,Clear,180,2013-07-16 10:34:00
4:53 AM,50.0,44.6,82,30.28,10.0,South,10.4,-,N/A,,Clear,170,2013-07-16 10:53:00
5:14 AM,50.0,44.6,82,30.27,10.0,South,9.2,-,N/A,,Clear,180,2013-07-16 11:14:00
5:34 AM,50.0,44.6,82,30.28,10.0,South,10.4,-,N/A,,Clear,170,2013-07-16 11:34:00
5:54 AM,50.0,44.6,82,30.28,10.0,South,9.2,-,N/A,,Clear,180,2013-07-16 11:54:00
6:14 AM,50.0,44.6,82,30.28,10.0,South,9.2,-,N/A,,Clear,190,2013-07-16 12:14:00
6:34 AM,51.8,44.6,76,30.29,10.0,South,10.4,-,N/A,,Clear,190,2013-07-16 12:34:00
6:51 AM,53.6,44.6,72,30.29,10.0,South,10.4,-,N/A,,Clear,190,2013-07-16 12:51:00
7:14 AM,55.4,44.6,67,30.29,10.0,South,11.5,-,N/A,,Clear,190,2013-07-16 13:14:00
7:34 AM,57.2,44.6,63,30.29,10.0,South,16.1,-,N/A,,Clear,180,2013-07-16 13:34:00
7:54 AM,59.0,44.6,59,30.30,10.0,South,15.0,20.7,N/A,,Clear,180,2013-07-16 13:54:00
8:13 AM,59.0,44.6,59,30.31,10.0,South,15.0,-,N/A,,Clear,180,2013-07-16 14:13:00
8:34 AM,60.8,44.6,55,30.31,10.0,South,15.0,-,N/A,,Clear,190,2013-07-16 14:34:00
8:54 AM,60.8,44.6,55,30.32,10.0,South,16.1,-,N/A,,Clear,170,2013-07-16 14:54:00
9:14 AM,60.8,44.6,55,30.32,10.0,South,17.3,25.3,N/A,,Clear,180,2013-07-16 15:14:00
9:34 AM,62.6,44.6,52,30.32,10.0,South,19.6,23.0,N/A,,Clear,190,2013-07-16 15:34:00
9:54 AM,62.6,46.4,55,30.32,10.0,South,17.3,24.2,N/A,,Clear,170,2013-07-16 15:54:00
10:14 AM,62.6,44.6,52,30.32,10.0,South,18.4,24.2,N/A,,Clear,170,2013-07-16 16:14:00
10:34 AM,62.6,44.6,52,30.33,10.0,South,20.7,25.3,N/A,,Clear,190,2013-07-16 16:34:00
10:53 AM,64.4,44.6,49,30.33,10.0,South,21.9,26.5,N/A,,Clear,170,2013-07-16 16:53:00
11:14 AM,64.4,46.4,52,30.33,10.0,SSE,18.4,26.5,N/A,,Clear,160,2013-07-16 17:14:00
11:34 AM,64.4,46.4,52,30.34,10.0,South,18.4,26.5,N/A,,Clear,180,2013-07-16 17:34:00
11:54 AM,64.4,46.4,52,30.34,10.0,South,18.4,26.5,N/A,,Clear,170,2013-07-16 17:54:00
12:14 PM,66.2,46.4,49,30.33,10.0,South,20.7,26.5,N/A,,Clear,190,2013-07-16 18:14:00
12:34 PM,66.2,46.4,49,30.33,10.0,SSE,18.4,27.6,N/A,,Clear,160,2013-07-16 18:34:00
12:54 PM,68.0,46.4,46,30.33,10.0,South,18.4,25.3,N/A,,Clear,170,2013-07-16 18:54:00
1:14 PM,68.0,46.4,46,30.33,10.0,South,17.3,25.3,N/A,,Clear,170,2013-07-16 19:14:00
1:34 PM,69.8,46.4,43,30.34,10.0,SSE,20.7,25.3,N/A,,Clear,160,2013-07-16 19:34:00
1:54 PM,69.8,46.4,43,30.33,10.0,South,18.4,25.3,N/A,,Clear,170,2013-07-16 19:54:00
2:14 PM,68.0,46.4,46,30.33,10.0,South,20.7,27.6,N/A,,Clear,170,2013-07-16 20:14:00
2:34 PM,69.8,46.4,43,30.33,10.0,SSE,19.6,28.8,N/A,,Clear,160,2013-07-16 20:34:00
2:54 PM,69.8,44.6,40,30.33,10.0,South,21.9,29.9,N/A,,Clear,170,2013-07-16 20:54:00
3:14 PM,69.8,44.6,40,30.33,10.0,SSE,20.7,26.5,N/A,,Clear,160,2013-07-16 21:14:00
3:34 PM,69.8,44.6,40,30.33,10.0,SSE,23.0,29.9,N/A,,Clear,160,2013-07-16 21:34:00
3:54 PM,71.6,42.8,35,30.33,10.0,SSE,21.9,31.1,N/A,,Clear,150,2013-07-16 21:54:00
4:14 PM,69.8,42.8,38,30.33,10.0,South,18.4,28.8,N/A,,Clear,170,2013-07-16 22:14:00
4:34 PM,69.8,42.8,38,30.32,10.0,SSE,24.2,27.6,N/A,,Clear,160,2013-07-16 22:34:00
4:54 PM,69.8,42.8,38,30.33,10.0,South,18.4,27.6,N/A,,Clear,170,2013-07-16 22:54:00
5:13 PM,69.8,42.8,38,30.33,10.0,South,18.4,27.6,N/A,,Clear,170,2013-07-16 23:13:00
5:34 PM,69.8,42.8,38,30.33,10.0,South,24.2,-,N/A,,Clear,170,2013-07-16 23:34:00
5:54 PM,69.8,42.8,38,30.33,10.0,SSE,20.7,27.6,N/A,,Clear,160,2013-07-16 23:54:00
6:14 PM,68.0,42.8,40,30.33,10.0,SSE,19.6,27.6,N/A,,Clear,160,2013-07-17 00:14:00
6:34 PM,68.0,42.8,40,30.33,10.0,SSE,21.9,29.9,N/A,,Clear,160,2013-07-17 00:34:00
6:54 PM,68.0,42.8,40,30.33,10.0,SSE,21.9,28.8,N/A,,Clear,160,2013-07-17 00:54:00
7:14 PM,66.2,44.6,46,30.33,10.0,SSE,20.7,26.5,N/A,,Clear,150,2013-07-17 01:14:00
7:33 PM,64.4,44.6,49,30.34,10.0,SSE,21.9,26.5,N/A,,Clear,160,2013-07-17 01:33:00
7:53 PM,64.4,44.6,49,30.34,10.0,SSE,17.3,-,N/A,,Clear,160,2013-07-17 01:53:00
8:14 PM,62.6,46.4,55,30.35,10.0,SSE,16.1,-,N/A,,Clear,150,2013-07-17 02:14:00
8:33 PM,60.8,46.4,59,30.36,10.0,SSE,13.8,24.2,N/A,,Clear,150,2013-07-17 02:33:00
8:54 PM,59.0,50.0,72,30.37,10.0,SSE,16.1,25.3,N/A,,Clear,160,2013-07-17 02:54:00
9:14 PM,59.0,50.0,72,30.38,10.0,SSE,20.7,26.5,N/A,,Clear,160,2013-07-17 03:14:00
9:34 PM,59.0,51.8,77,30.38,10.0,SSE,17.3,25.3,N/A,,Clear,150,2013-07-17 03:34:00
9:53 PM,57.2,51.8,82,30.39,10.0,SSE,19.6,27.6,N/A,,Clear,160,2013-07-17 03:53:00
10:14 PM,57.2,53.6,88,30.39,10.0,SSE,23.0,-,N/A,,Scattered Clouds,160,2013-07-17 04:14:00
10:34 PM,55.4,53.6,94,30.40,10.0,SSE,21.9,28.8,N/A,,Scattered Clouds,160,2013-07-17 04:34:00
10:54 PM,55.4,53.6,94,30.40,10.0,SSE,20.7,27.6,N/A,,Scattered Clouds,160,2013-07-17 04:54:00
11:14 PM,55.4,53.6,94,30.41,10.0,South,21.9,26.5,N/A,,Scattered Clouds,170,2013-07-17 05:14:00
11:34 PM,55.4,53.6,94,30.40,10.0,SSE,20.7,26.5,N/A,,Scattered Clouds,160,2013-07-17 05:34:00
11:54 PM,55.4,53.6,94,30.41,10.0,SSE,23.0,27.6,N/A,,Scattered Clouds,160,2013-07-17 05:54:00